LANCR55 PHKO-PHOG

Flight info

Callsign LANCR55
Flight time N/A
Altitude VFR/125
Route
Aircraft VF35/M-SDFIRY/LB1

Departure

Time N/A
Airport Ellison Onizuka Kona International Airport at Keāhole (PHKO)

Arrival

Time 2026-04-24 01:49
Airport Kahului International Airport (PHOG)
Time Latitude Longitude Altitude Speed Heading
2026-04-24 01:38 20.80735 -156.47099 1669 ft 211 kts 350°
2026-04-24 01:38 20.82138 -156.47331 1562 ft 199 kts
2026-04-24 01:38 20.83524 -156.46997 1296 ft 201 kts 20°
2026-04-24 01:38 20.84650 -156.46527 987 ft 165 kts 22°
2026-04-24 01:39 20.85636 -156.46006 774 ft 153 kts 31°
2026-04-24 01:39 20.86544 -156.45345 581 ft 163 kts 33°
2026-04-24 01:39 20.87517 -156.44648 422 ft 171 kts 33°
2026-04-24 01:39 20.88496 -156.43929 206 ft 171 kts 32°
2026-04-24 01:40 20.89421 -156.43245 32 ft 140 kts 32°
2026-04-24 01:40 20.90111 -156.42740 63 ft 150 kts 31°
2026-04-24 01:40 20.91205 -156.41906 582 ft 220 kts 40°
2026-04-24 01:40 20.91351 -156.40368 1040 ft 243 kts 127°
2026-04-24 01:41 20.89871 -156.40165 1144 ft 233 kts 218°
2026-04-24 01:41 20.88509 -156.41243 1163 ft 252 kts 219°
2026-04-24 01:41 20.87152 -156.42431 1156 ft 240 kts 220°
2026-04-24 01:41 20.86017 -156.43527 1148 ft 211 kts 242°
2026-04-24 01:42 20.86226 -156.44778 1021 ft 180 kts 349°
2026-04-24 01:42 20.87381 -156.44517 690 ft 171 kts 20°
2026-04-24 01:42 20.88476 -156.43953 286 ft 173 kts 33°
2026-04-24 01:42 20.89398 -156.43262 35 ft 142 kts 32°
2026-04-24 01:43 20.90091 -156.42754 49 ft 143 kts 31°
2026-04-24 01:43 20.91216 -156.41859 579 ft 251 kts 48°
2026-04-24 01:43 20.91278 -156.39969 1304 ft 280 kts 129°
2026-04-24 01:43 20.89629 -156.39846 1423 ft 255 kts 214°
2026-04-24 01:44 20.88135 -156.40944 1424 ft 263 kts 215°
2026-04-24 01:44 20.86638 -156.42088 1431 ft 266 kts 216°
2026-04-24 01:44 20.85236 -156.43372 1495 ft 261 kts 241°
2026-04-24 01:44 20.85436 -156.44860 1367 ft 201 kts 334°
2026-04-24 01:45 20.86776 -156.44804 971 ft 200 kts 20°
2026-04-24 01:45 20.88025 -156.44200 397 ft 194 kts 27°
2026-04-24 01:45 20.89126 -156.43471 40 ft 180 kts 33°
2026-04-24 01:45 20.89976 -156.42841 26 ft 115 kts 34°
2026-04-24 01:46 20.90658 -156.42346 144 ft 171 kts 32°
2026-04-24 01:46 20.91920 -156.41431 1170 ft 247 kts 33°
2026-04-24 01:46 20.93356 -156.41611 1765 ft 236 kts 291°
2026-04-24 01:46 20.92782 -156.43224 1719 ft 242 kts 239°
2026-04-24 01:47 20.91981 -156.44766 1664 ft 235 kts 246°
2026-04-24 01:47 20.91227 -156.46322 1676 ft 236 kts 246°
2026-04-24 01:47 20.90415 -156.47700 1638 ft 204 kts 217°
2026-04-24 01:47 20.89212 -156.47706 1429 ft 174 kts 127°
2026-04-24 01:48 20.88994 -156.46488 1074 ft 160 kts 85°
2026-04-24 01:48 20.89083 -156.45595 908 ft 85 kts 70°
2026-04-24 01:48 20.89253 -156.45054 671 ft 88 kts 62°
2026-04-24 01:48 20.89482 -156.44475 386 ft 85 kts 64°
2026-04-24 01:49 20.89682 -156.43962 179 ft 64 kts 55°
2026-04-24 01:49 20.89847 -156.43602 56 ft 45 kts 50°
2026-04-24 01:49 20.89954 -156.43346 34 ft 41 kts 48°
2026-04-24 01:49 20.90275 -156.42639 135 ft 161 kts 60°
2026-04-24 01:50 20.90916 -156.41115 467 ft 262 kts 62°
2026-04-24 01:50 20.92232 -156.40147 1009 ft 237 kts 339°
2026-04-24 01:50 20.92637 -156.41632 1265 ft 242 kts 256°
2026-04-24 01:50 20.92080 -156.43368 1268 ft 248 kts 256°
2026-04-24 01:51 20.91607 -156.45134 1252 ft 247 kts 258°
2026-04-24 01:51 20.91146 -156.46876 1260 ft 246 kts 257°
2026-04-24 01:51 20.90216 -156.48097 1264 ft 212 kts 187°
2026-04-24 01:51 20.89090 -156.47385 1147 ft 203 kts 111°
2026-04-24 01:52 20.88976 -156.45908 775 ft 198 kts 75°
2026-04-24 01:52 20.89393 -156.44656 408 ft 151 kts 63°
2026-04-24 01:52 20.89713 -156.43889 190 ft 79 kts 56°
2026-04-24 01:52 20.89891 -156.43492 55 ft 54 kts 51°
2026-04-24 01:53 20.90026 -156.43179 39 ft 42 kts 50°
2026-04-24 01:53 20.90239 -156.42742 66 ft 120 kts 56°
2026-04-24 01:53 20.90799 -156.41467 429 ft 226 kts 60°
2026-04-24 01:53 20.91538 -156.39928 734 ft 246 kts 59°
2026-04-24 01:54 20.92380 -156.38270 824 ft 261 kts 58°
2026-04-24 01:54 20.93246 -156.36590 848 ft 254 kts 60°
2026-04-24 01:54 20.93970 -156.34967 1456 ft 249 kts 63°
2026-04-24 01:54 20.94586 -156.33281 1554 ft 243 kts 68°
2026-04-24 01:55 20.95164 -156.31569 1566 ft 238 kts 68°
2026-04-24 01:55 20.95692 -156.29877 1548 ft 241 kts 74°
2026-04-24 01:55 20.95739 -156.28111 1565 ft 245 kts 94°
2026-04-24 01:55 20.95488 -156.26317 1525 ft 248 kts 98°
2026-04-24 01:56 20.95189 -156.24512 1542 ft 247 kts 98°
2026-04-24 01:56 20.94858 -156.22702 1505 ft 253 kts 99°
2026-04-24 01:56 20.94517 -156.20908 1470 ft 241 kts 99°
2026-04-24 01:56 20.94173 -156.19111 1464 ft 250 kts 99°
2026-04-24 01:57 20.93812 -156.17337 1925 ft 247 kts 104°
2026-04-24 01:57 20.92951 -156.15741 2661 ft 250 kts 132°
2026-04-24 01:57 20.91415 -156.14787 3138 ft 261 kts 168°
2026-04-24 01:57 20.89600 -156.14923 3370 ft 269 kts 203°
2026-04-24 01:58 20.88169 -156.16114 3487 ft 264 kts 239°
2026-04-24 01:58 20.87604 -156.17957 3556 ft 264 kts 269°
2026-04-24 01:58 20.87629 -156.19888 3544 ft 262 kts 276°
2026-04-24 01:58 20.87783 -156.21817 3539 ft 259 kts 279°
2026-04-24 01:59 20.87972 -156.23739 3524 ft 259 kts 279°
2026-04-24 01:59 20.87934 -156.25596 3528 ft 240 kts 258°
2026-04-24 01:59 20.87461 -156.27315 3500 ft 247 kts 253°
2026-04-24 01:59 20.86886 -156.29001 3499 ft 243 kts 250°
2026-04-24 02:00 20.86292 -156.30662 3475 ft 241 kts 250°
2026-04-24 02:00 20.85783 -156.32308 3492 ft 234 kts 265°
2026-04-24 02:00 20.85757 -156.34049 3472 ft 233 kts 275°
2026-04-24 02:00 20.85875 -156.35795 3492 ft 239 kts 278°
2026-04-24 02:01 20.86024 -156.37559 3486 ft 239 kts 279°
2026-04-24 02:01 20.86134 -156.39236 3197 ft 207 kts 275°
2026-04-24 02:01 20.86123 -156.40703 2566 ft 198 kts 271°
2026-04-24 02:01 20.86105 -156.42142 2158 ft 187 kts 274°
2026-04-24 02:02 20.86254 -156.43483 1600 ft 179 kts 293°
2026-04-24 02:02 20.86921 -156.44422 1016 ft 154 kts 350°
2026-04-24 02:02 20.88003 -156.44224 578 ft 160 kts 26°
2026-04-24 02:02 20.88772 -156.43723 272 ft 96 kts 34°
2026-04-24 02:03 20.88906 -156.43387 31 ft 0 kts 262°
2026-04-24 02:03 20.88903 -156.43391 29 ft 2 kts 239°
2026-04-24 02:03 20.88878 -156.43333 30 ft 15 kts 90°
2026-04-24 02:04 20.88890 -156.43321 30 ft 0 kts